#timestamp,LO_Frequency,Hit 
1498424415.8,286047009.3,N
1498424435.6,286047013.5,N
1498424455.5,286047013.3,N
1498424475.3,286047010.6,N
1498424495.1,286047011.4,N
1498424515.9,286047014.0,N
1498424535.7,286047014.0,N
1498424555.6,286047013.8,N
1498424575.4,286047013.9,N
1498424595.2,286047011.1,N
1498424615.1,286047013.6,N
1498424616.0,286047013.6,N
1498424635.8,286047013.6,N
1498424655.6,286047013.4,N
1498424675.5,286047013.7,N
1498424695.3,286047011.0,N
1498424715.2,286047013.8,N
1498424735.9,286047012.0,N
1498424755.7,286047011.4,N
1498424775.6,286047013.5,N
1498424795.4,286047013.9,N
1498424815.2,286047011.0,N
1498424835.1,286047013.3,N
1498424836.0,286047013.3,N
1498424855.8,286047013.1,N
1498424875.7,286047015.5,N
1498424895.5,286047013.2,N
1498424915.3,286047013.2,N
1498424935.2,286047013.0,N
1498424955.0,286047013.7,N
1498424955.9,286047013.7,N
1498424975.8,286047011.6,N
1498424995.6,286047009.6,N
1498425015.4,286047009.3,N
1498425035.3,286047011.9,N
1498425055.1,286047011.9,N
1498425075.8,286047011.6,N
1498425095.7,286047013.9,N
1498425115.5,286047013.6,N
1498425135.4,286047014.0,N
1498425155.2,286047011.4,N
1498425175.0,286047011.3,N
1498425175.9,286047011.3,N
1498425195.8,286047011.7,N
1498425215.6,286047009.8,N
1498425235.5,286047011.9,N
1498425255.3,286047012.3,N
1498425275.1,286047011.7,N
1498425295.9,286047011.5,N
1498425315.7,286047012.1,N
1498425335.5,286047009.9,N
1498425355.4,286047010.0,N
1498425375.2,286047012.2,N
1498425395.1,286047011.5,N
1498425396.0,286047011.5,N
1498425415.8,286047012.1,N
1498425435.6,286047012.0,N
1498425455.5,286047009.3,N
1498425475.3,286047009.5,N
1498425495.1,286047009.3,N
1498425515.9,286047009.6,N
1498425535.7,286047007.7,N
1498425555.6,286047007.7,N
1498425575.4,286047008.1,N
1498425595.2,286047007.9,N
1498425615.1,286047008.2,N
1498425616.0,286047008.2,N
1498425635.8,286047007.7,N
1498425655.6,286047010.4,N
1498425675.5,286047010.6,N
1498425695.3,286047007.7,N
1498425715.2,286047010.3,N
1498425735.9,286047010.3,N
1498425755.7,286047010.4,N
1498425775.6,286047010.4,N
1498425795.4,286047010.4,N
1498425815.3,286047009.9,N
1498425835.1,286047010.0,N
1498425836.0,286047010.0,N
1498425855.8,286047010.5,N
1498425875.7,286047009.3,N
1498425895.5,286047010.0,N
1498425915.4,286047010.6,N
1498425935.2,286047009.5,N
1498425955.0,286047010.3,N
1498425955.9,286047010.3,N
1498425975.8,286047008.2,N
1498425995.6,286047010.6,N
1498426015.4,286047009.5,N
1498426035.3,286047010.6,N
1498426055.1,286047010.3,N
1498426075.9,286047008.3,N
1498426095.7,286047010.3,N
1498426115.5,286047009.4,N
1498426135.4,286047010.0,N
1498426155.2,286047010.1,N
1498426175.0,286047008.1,N
1498426176.0,286047008.1,N
1498426195.8,286047007.8,N
1498426215.6,286047009.9,N
1498426235.5,286047010.4,N
1498426255.3,286047010.6,N
1498426275.1,286047007.7,N
1498426295.9,286047009.7,N
1498426345.7,286047009.3,Y
1498426355.7,286047007.1,N
1498426375.5,286047002.0,N
1498426395.3,286047002.7,N
1498426415.2,286047000.0,N
1498426435.0,286047002.8,N
1498426435.9,286047002.8,N
1498426455.8,286047001.8,N
1498426475.6,286047001.4,N
1498426495.4,286047002.6,N
1498426515.3,286047002.0,N
1498426535.1,286047000.4,N
1498426555.9,286047000.9,N
1498426575.7,286047000.1,N
1498426595.5,286047000.6,N
1498426615.4,286047000.0,N
1498426635.2,286047000.2,N
1498426655.0,286047000.3,N
1498426655.9,286047000.3,N
1498426675.8,286046999.7,N
1498426695.6,286047002.3,N
1498426715.5,286047000.6,N
1498426735.3,286046999.8,N
1498426755.1,286046998.6,N
1498426775.9,286047002.4,N
1498426795.7,286047002.3,N
1498426815.5,286047002.6,N
1498426835.4,286047002.3,N
1498426855.2,286047001.5,N
1498426875.1,286047002.1,N
1498426876.0,286047002.1,N
1498426895.8,286047002.5,N
1498426915.6,286047002.1,N
1498426935.5,286047001.4,N
1498426955.3,286047002.1,N
1498426975.2,286046999.8,N
1498426995.9,286047002.4,N
1498427015.7,286046999.7,N
1498427035.6,286047004.3,N
1498427055.4,286047002.1,N
1498427075.2,286047004.3,N
1498427095.1,286047006.0,N
1498427096.0,286047006.0,N
1498427115.8,286047003.4,N
1498427135.7,286047004.3,N
1498427155.5,286047002.7,N
1498427175.3,286047002.4,N
1498427195.2,286047002.1,N
1498427215.0,286047002.3,N
1498427215.9,286047002.3,N
1498427235.8,286047002.6,N
1498427255.6,286047001.4,N
1498427275.4,286047001.8,N
1498427295.3,286046999.8,N
1498427315.1,286047001.6,N
1498427335.8,286047004.0,N
1498427355.7,286047003.1,N
1498427375.5,286047004.2,N
1498427395.4,286047004.3,N
1498427415.2,286047002.1,N
1498427435.0,286047002.4,N
1498427435.9,286047002.4,N
1498427455.8,286047002.1,N
1498427475.6,286047001.6,N
1498427495.4,286047001.4,N
1498427515.3,286047002.1,N
1498427535.1,286047002.4,N
1498427555.9,286047002.5,N
1498427575.7,286047002.0,N
1498427595.5,286047002.1,N
1498427615.4,286047002.0,N
1498427635.2,286047001.3,N
1498427655.0,286047001.9,N
1498427655.9,286047001.9,N
1498427675.8,286047001.9,N
1498427695.6,286047004.4,N
1498427715.5,286047004.3,N
1498427735.3,286047003.2,N
1498427755.1,286047004.0,N
1498427775.9,286047001.4,N
1498427795.7,286047004.1,N
1498427815.5,286047001.7,N
1498427835.4,286047001.4,N
1498427855.2,286047004.0,N
1498427875.1,286047001.4,N
1498427876.0,286047001.4,N
1498427895.8,286047001.3,N
1498427915.6,286047001.3,N
1498427935.5,286047004.1,N
1498427955.3,286047002.1,N
1498427975.1,286047002.2,N
1498427995.9,286047004.0,N
